BISONSAT

Last updated on Sun Dec 14 2025 00:03:50 GMT+0000 (Coordinated Universal Time)

1 40974U 15058L 25347.26983272 .00019284 00000+0 10502-2 0 9996 2 40974 64.7626 52.5434 0086808 129.2408 231.6460 15.11263142 87470
UTC large
Height (km)
Speed (km/s)
/
Latitude / Longitude
Inclination (degrees)
Orbital Period (minutes)
Azimuth
Elevation
Range (km)
Doppler Factor

Next 0 passes for location: London (51.5072 / 0.1276)

Sorry there are no passes over London.